Location: Wavehorne
(51.0500°N, 0.8333°E)
Time: 20:42:37
(UTC+00:00)

FALCON 9 DEB - Pass Details

Date: 20 June 2021
Orbit: 364 x 380 km, 53.0° (Epoch: 23 July)

Event Time Altitude Azimuth Distance (km) Brightness Sun altitude
Rises 02:04:18 0° 288° (WNW) 2,277 6.7 -10.5°
Reaches altitude 10° 02:06:22 10° 287° (WNW) 1,420 5.6 -10.4°
Maximum altitude 02:09:32 76° 202° (SSW) 403 2.8 -10.1°
Drops below altitude 10° 02:12:41 10° 116° (ESE) 1,410 5.8 -9.8°
Sets 02:14:44 0° 115° (ESE) 2,259 6.9 -9.7°
